This is the latest recevied weather packets stored in our database for station/object IT9CYW-12. If no packets are shown the sender has not sent any weather packets the latest 10 day(s).
| Time | Temp. | Humidity | Pressure | Rain* | Wind** | Luminosity | Snow |
|---|---|---|---|---|---|---|---|
| 1777525026 | 16.67° C | 65% | 977.7 hPa | - | - | 19 W/m² | - |
| 1777524125 | 16.11° C | 65% | 977.9 hPa | - | - | 5 W/m² | - |
| 1777523226 | 16.67° C | 65% | 977.4 hPa | - | - | 1 W/m² | - |
| 1777522325 | 16.11° C | 68% | 977.4 hPa | - | - | 0 W/m² | - |
| 1777521425 | 16.67° C | 62% | 977 hPa | - | - | 0 W/m² | - |
| 1777520525 | 16.67° C | 64% | 977.4 hPa | - | - | 0 W/m² | - |
| 1777519625 | 16.67° C | 65% | 977.2 hPa | - | - | 0 W/m² | - |
| 1777518725 | 16.67° C | 62% | 977.4 hPa | - | - | 0 W/m² | - |
| 1777516925 | 17.22° C | 60% | 977.7 hPa | - | - | 0 W/m² | - |
| 1777516024 | 17.22° C | 58% | 977.9 hPa | - | - | 0 W/m² | - |
| 1777515124 | 16.67° C | 59% | 977.7 hPa | - | - | 0 W/m² | - |
| 1777514227 | 16.67° C | 60% | 977.5 hPa | - | - | 0 W/m² | - |
| 1777513323 | 16.67° C | 59% | 977.5 hPa | - | - | 0 W/m² | - |
| 1777512422 | 16.67° C | 62% | 977.7 hPa | - | - | 0 W/m² | - |
| 1777511522 | 16.67° C | 62% | 977.7 hPa | - | - | 0 W/m² | - |
| 1777510622 | 16.67° C | 61% | 977.7 hPa | - | - | 0 W/m² | - |
| 1777509721 | 16.67° C | 61% | 977.7 hPa | - | - | 0 W/m² | - |
| 1777508821 | 17.22° C | 59% | 978 hPa | - | - | 0 W/m² | - |
| 1777507026 | 17.78° C | 56% | 978.2 hPa | - | - | 0 W/m² | - |
| 1777506126 | 18.33° C | 53% | 978.4 hPa | - | - | 0 W/m² | - |
| 1777505226 | 18.89° C | 52% | 978.5 hPa | - | - | 0 W/m² | - |
| 1777504326 | 18.33° C | 53% | 978.2 hPa | - | - | 0 W/m² | - |
| 1777503425 | 18.33° C | 52% | 978.5 hPa | - | - | 0 W/m² | - |
| 1777502525 | 18.33° C | 53% | 978.4 hPa | - | - | 0 W/m² | - |
| 1777501625 | 18.89° C | 51% | 978.4 hPa | - | - | 0 W/m² | - |
* Rain since midnight (hover to see other rain measurements)
** Current wind speed in m/s (hover to see current wind gust speed)